| time (UTC) | temp F | wind direction | speed MPH | gust MPH | rain 1hr in | rain 24hr in | rain mn in | humidity % | barometer mb |
| 20260905031502 | 61 | 51 | 11.0 | 12.0 | 0.00 | 0.00 | 0.00 | 54 | 1012.0 |
| 20260905030002 | 61 | 40 | 10.0 | 12.0 | 0.00 | 0.00 | 0.00 | 54 | 1012.0 |
| 20260905024501 | 60 | 77 | 10.0 | 13.0 | 0.00 | 0.00 | 0.00 | 57 | 1011.9 |
| 20260905023100 | 61 | 73 | 13.0 | 14.0 | 0.00 | 0.00 | 0.00 | 57 | 1011.9 |
| 20260905021559 | 61 | 76 | 12.0 | 14.0 | 0.00 | 0.00 | 0.00 | 54 | 1011.9 |
| 20260905020058 | 62 | 64 | 11.0 | 13.0 | 0.00 | 0.00 | 0.00 | 55 | 1011.9 |
| 20260905014601 | 63 | 81 | 9.0 | 13.0 | 0.00 | 0.01 | 0.00 | 52 | 1011.8 |
| 20260905013100 | 62 | 85 | 11.0 | 14.0 | 0.00 | 0.01 | 0.00 | 54 | 1011.6 |
| 20260905011556 | 62 | 91 | 15.0 | 17.0 | 0.00 | 0.01 | 0.00 | 53 | 1011.6 |
| 20260905010056 | 62 | 101 | 12.0 | 18.0 | 0.00 | 0.01 | 0.00 | 56 | 1011.6 |
| 20260905004619 | 64 | 122 | 19.0 | 27.0 | 0.00 | 0.01 | 0.00 | 49 | 1011.4 |
| 20260905003055 | 70 | 77 | 4.0 | 11.0 | 0.00 | 0.01 | 0.00 | 35 | 1011.2 |
| 20260905001552 | 70 | 56 | 5.0 | 12.0 | 0.00 | 0.01 | 0.00 | 37 | 1011.0 |
| 20260905000051 | 70 | 91 | 4.0 | 8.0 | 0.00 | 0.01 | 0.00 | 35 | 1010.9 |
| 20260904234547 | 69 | 51 | 3.0 | 7.0 | 0.00 | 0.01 | 0.00 | 38 | 1011.1 |
| 20260904233045 | 69 | 324 | 5.0 | 11.0 | 0.00 | 0.01 | 0.00 | 37 | 1011.0 |
| 20260904231544 | 69 | 354 | 5.0 | 10.0 | 0.00 | 0.01 | 0.00 | 39 | 1011.1 |
| 20260904224542 | 68 | 56 | 4.0 | 10.0 | 0.00 | 0.01 | 0.00 | 38 | 1011.2 |
| 20260904223141 | 69 | 40 | 4.0 | 10.0 | 0.00 | 0.01 | 0.00 | 40 | 1011.2 |
| 20260904221538 | 68 | 326 | 4.0 | 9.0 | 0.00 | 0.01 | 0.00 | 40 | 1011.3 |
| 20260904220038 | 68 | 337 | 2.0 | 12.0 | 0.00 | 0.01 | 0.00 | 40 | 1011.3 |
| 20260904214536 | 69 | 33 | 9.0 | 11.0 | 0.00 | 0.01 | 0.00 | 41 | 1011.3 |
| 20260904213035 | 68 | 46 | 5.0 | 12.0 | 0.00 | 0.01 | 0.00 | 41 | 1011.3 |
| 20260904211535 | 67 | 6 | 3.0 | 10.0 | 0.00 | 0.01 | 0.00 | 41 | 1011.3 |
| 20260904210032 | 67 | 336 | 5.0 | 9.0 | 0.00 | 0.01 | 0.00 | 41 | 1011.2 |
| 20260904204532 | 67 | 68 | 4.0 | 7.0 | 0.00 | 0.01 | 0.00 | 40 | 1011.3 |
| 20260904203030 | 67 | 50 | 5.0 | 14.0 | 0.00 | 0.01 | 0.00 | 41 | 1011.3 |
| 20260904201529 | 67 | 351 | 7.0 | 9.0 | 0.00 | 0.01 | 0.00 | 40 | 1011.3 |
| 20260904200028 | 67 | 340 | 2.0 | 9.0 | 0.00 | 0.01 | 0.00 | 42 | 1011.4 |
| 20260904194526 | 66 | 49 | 5.0 | 10.0 | 0.00 | 0.01 | 0.00 | 44 | 1011.5 |
| 20260904193034 | 65 | 314 | 5.0 | 11.0 | 0.00 | 0.01 | 0.00 | 48 | 1011.6 |
| 20260904191524 | 65 | 317 | 7.0 | 10.0 | 0.00 | 0.01 | 0.00 | 47 | 1011.7 |
| 20260904190033 | 64 | 346 | 4.0 | 6.0 | 0.00 | 0.01 | 0.00 | 49 | 1011.9 |
| 20260904184515 | 63 | 1 | 3.0 | 5.0 | 0.00 | 0.01 | 0.00 | 49 | 1012.0 |
| 20260904183014 | 63 | 276 | 1.0 | 10.0 | 0.00 | 0.01 | 0.00 | 49 | 1012.1 |
| 20260904181513 | 63 | 311 | 8.0 | 13.0 | 0.00 | 0.01 | 0.00 | 49 | 1011.9 |
| 20260904180011 | 62 | 281 | 6.0 | 12.0 | 0.00 | 0.01 | 0.00 | 50 | 1012.1 |
| 20260904174511 | 62 | 34 | 2.0 | 6.0 | 0.00 | 0.01 | 0.00 | 52 | 1012.2 |
| 20260904173007 | 61 | 290 | 5.0 | 7.0 | 0.00 | 0.01 | 0.00 | 52 | 1012.1 |
| 20260904171505 | 61 | 334 | 3.0 | 7.0 | 0.00 | 0.01 | 0.00 | 52 | 1012.1 |
| 20260904170005 | 61 | 195 | 3.0 | 7.0 | 0.00 | 0.01 | 0.00 | 56 | 1012.3 |
| 20260904164502 | 60 | 264 | 2.0 | 4.0 | 0.00 | 0.01 | 0.00 | 56 | 1012.1 |
| 20260904163107 | 59 | 246 | 2.0 | 4.0 | 0.00 | 0.01 | 0.00 | 60 | 1012.0 |
| 20260904161602 | 57 | 267 | 1.0 | 4.0 | 0.00 | 0.01 | 0.00 | 64 | 1011.8 |
| 20260904160108 | 59 | 298 | 1.0 | 5.0 | 0.00 | 0.01 | 0.00 | 58 | 1011.8 |
| 20260904154554 | 59 | 111 | 3.0 | 5.0 | 0.00 | 0.02 | 0.00 | 56 | 1011.8 |
| 20260904153104 | 57 | 96 | 1.0 | 7.0 | 0.00 | 0.02 | 0.00 | 58 | 1011.7 |
| 20260904151647 | 56 | 86 | 4.0 | 7.0 | 0.00 | 0.02 | 0.00 | 61 | 1011.7 |
| 20260904150100 | 55 | 70 | 5.0 | 8.0 | 0.00 | 0.02 | 0.00 | 63 | 1011.5 |
| 20260904144545 | 53 | 68 | 9.0 | 11.0 | 0.00 | 0.02 | 0.00 | 66 | 1011.5 |
| 20260904143041 | 52 | 76 | 11.0 | 13.0 | 0.00 | 0.02 | 0.00 | 67 | 1011.2 |
| 20260904141539 | 51 | 74 | 13.0 | 16.0 | 0.00 | 0.02 | 0.00 | 69 | 1011.1 |
| 20260904140037 | 49 | 70 | 9.0 | 14.0 | 0.00 | 0.02 | 0.00 | 75 | 1010.8 |
| 20260904134534 | 0 | 0.0 | 0.0 | 0.00 | 0.02 | 0.00 | 1010.7 | ||
| 20260904133028 | 0 | 0.0 | 0.0 | 0.00 | 0.02 | 0.00 | 1010.8 | ||
| 20260904131524 | 0 | 0.0 | 0.0 | 0.00 | 0.02 | 0.00 | 1010.7 | ||
| 20260904130038 | 0 | 0.0 | 0.0 | 0.00 | 0.02 | 0.00 | 1010.6 | ||
| 20260904124517 | 0 | 0.0 | 0.0 | 0.00 | 0.02 | 0.00 | 1010.6 | ||
| 20260904123019 | 0 | 0.0 | 0.0 | 0.00 | 0.02 | 0.00 | 1010.5 | ||
| 20260904121507 | 0 | 0.0 | 0.0 | 0.00 | 0.02 | 0.00 | 1010.3 | ||
| 20260904120001 | 0 | 0.0 | 0.0 | 0.00 | 0.02 | 0.00 | 1010.2 | ||
| 20260904114557 | 0 | 0.0 | 0.0 | 0.00 | 0.02 | 0.00 | 1010.0 | ||
| 20260904113053 | 0 | 0.0 | 0.0 | 0.00 | 0.02 | 0.00 | 1009.8 | ||
| 20260904111547 | 0 | 0.0 | 0.0 | 0.00 | 0.02 | 0.00 | 1009.6 | ||
| 20260904110044 | 0 | 0.0 | 0.0 | 0.00 | 0.02 | 0.00 | 1009.4 | ||
| 20260904104540 | 0 | 0.0 | 0.0 | 0.00 | 0.02 | 0.00 | 1009.4 | ||
| 20260904103035 | 0 | 0.0 | 0.0 | 0.00 | 0.02 | 0.00 | 1009.3 | ||
| 20260904101531 | 0 | 0.0 | 0.0 | 0.00 | 0.02 | 0.00 | 1009.0 | ||
| 20260904100028 | 0 | 0.0 | 0.0 | 0.00 | 0.02 | 0.00 | 1008.7 | ||
| 20260904094522 | 0 | 0.0 | 0.0 | 0.00 | 0.02 | 0.00 | 1008.9 | ||
| 20260904093021 | 0 | 0.0 | 0.0 | 0.00 | 0.02 | 0.00 | 1008.9 | ||
| 20260904091519 | 0 | 0.0 | 0.0 | 0.00 | 0.02 | 0.00 | 1008.6 | ||
| 20260904090009 | 0 | 0.0 | 0.0 | 0.00 | 0.02 | 0.00 | 1008.8 | ||
| 20260904084505 | 0 | 0.0 | 0.0 | 0.00 | 0.03 | 0.00 | 1008.9 | ||
| 20260904083100 | 0 | 0.0 | 0.0 | 0.00 | 0.03 | 0.00 | 1008.7 | ||
| 20260904081600 | 0 | 0.0 | 0.0 | 0.00 | 0.03 | 0.00 | 1008.5 | ||
| 20260904080053 | 54 | 91 | 5.0 | 9.0 | 0.00 | 0.03 | 0.00 | 61 | 1008.5 |
| 20260904074550 | 54 | 86 | 6.0 | 8.0 | 0.00 | 0.03 | 0.00 | 61 | 1008.3 |
| 20260904073049 | 55 | 94 | 5.0 | 13.0 | 0.00 | 0.03 | 0.00 | 59 | 1008.2 |
| 20260904071545 | 55 | 85 | 7.0 | 13.0 | 0.00 | 0.03 | 0.00 | 59 | 1008.2 |
| 20260904070042 | 53 | 43 | 6.0 | 10.0 | 0.00 | 0.03 | 0.00 | 62 | 1008.0 |
| 20260904064540 | 54 | 66 | 8.0 | 11.0 | 0.00 | 0.12 | 0.03 | 61 | 1008.0 |
| 20260904063043 | 55 | 96 | 7.0 | 12.0 | 0.00 | 0.12 | 0.03 | 60 | 1007.9 |
| 20260904061545 | 55 | 65 | 9.0 | 15.0 | 0.00 | 0.12 | 0.03 | 62 | 1008.0 |
| 20260904060039 | 54 | 82 | 8.0 | 13.0 | 0.00 | 0.12 | 0.03 | 63 | 1008.1 |
| 20260904054539 | 54 | 110 | 6.0 | 12.0 | 0.00 | 0.17 | 0.03 | 62 | 1007.9 |
| 20260904053037 | 54 | 91 | 6.0 | 13.0 | 0.00 | 0.17 | 0.03 | 63 | 1007.9 |
| 20260904051537 | 54 | 134 | 5.0 | 9.0 | 0.00 | 0.17 | 0.03 | 62 | 1008.1 |
| 20260904050035 | 54 | 115 | 7.0 | 14.0 | 0.00 | 0.17 | 0.03 | 63 | 1008.3 |
| 20260904044549 | 54 | 80 | 10.0 | 15.0 | 0.00 | 0.20 | 0.03 | 67 | 1008.4 |
| 20260904043049 | 54 | 67 | 14.0 | 17.0 | 0.00 | 0.20 | 0.03 | 70 | 1008.2 |
| 20260904041533 | 54 | 70 | 14.0 | 19.0 | 0.00 | 0.20 | 0.03 | 68 | 1007.9 |
| 20260904040031 | 54 | 84 | 15.0 | 18.0 | 0.00 | 0.20 | 0.03 | 69 | 1007.8 |
| 20260904034530 | 54 | 85 | 16.0 | 21.0 | 0.00 | 0.21 | 0.03 | 67 | 1007.8 |
| 20260904033028 | 56 | 62 | 4.0 | 19.0 | 0.00 | 0.21 | 0.03 | 61 | 1007.8 |